Погода в Синявине

Россия / Санкт-Петербург и Ленинградская область     59°54′32″N   31°03′59″E
темп.,
°C
ветер,
м/с
пор.,
м/с
влажн.,
%
обл.,
%
осадки,
мм/ч
давл.,
гПа
погр.,
м
25 января, пн
пн2500:00+1ю31195100 0.1 1001548
03:00+1юв3897100 0.2 1000293
06:00+2юв41198100 0.4 998410
09:00+3ююв41197100 0.8 998403
12:00+3ю41198100 0.2 1000462
15:00+3ю41195100 0.2 1002503
18:00+2ююв399798 0.0 1003299
21:00+1ю379599 0.0 1004218
26 января, вт
вт2600:00+1ююв3896100 0.0 1005305
03:00+1вюв2598100 0.1 1005131
06:00+2юв3898100 0.5 1004258
09:00+2юв3997100 0.6 1003292
12:00+2вюв3996100 0.0 1003335
15:00+2вюв3996100 0.8 1001403
18:00+2вюв31095100 0.2 1000483
21:00+2вюв51291100 0.2 1000531
27 января, ср
ср2700:00+1в4109198 0.1 999590
03:000в499799 0.1 998442
06:000в3799100 1.1 997311
09:00−1вюв2597100 1.8 997217
12:00−1юв249590 0.1 998256
15:000ю129288 0.2 999255
18:00−1ююз1388100 0.0 1001103
21:00−1ю1392100 0.1 1002182
28 января, чт
чт2800:00−1ююв2492100 0.1 1004190
03:00−1ююв1391100 0.1 1005151
06:00−1юв258799 0.0 1005252
09:00−1вюв368997 0.0 1005321
12:00−1вюв3693100 0.1 1005396
15:00−1юв3794100 0.4 1004389
18:00−1юв2698100 0.6 1003340
21:00−1юв2598100 1.4 1002247
29 января, пт
пт2900:00−1ююв1299100 1.3 100197
03:00−2зюз2597100 2.7 999280
06:00−3зюз2695100 0.4 998317
09:00−5ююз269568 0.4 998162
12:00−4ююз379025 0.0 998414
15:00−3ююз478657 0.0 998629
18:00−4ююз4787100 0.1 998786
21:00−4ююв388598 0.1 998425